Simultaneous Nadir Overpasses (SNOs) Predictions

Prediction of SNOs between LANDSAT-8 and NOAA-19 Satellite Orbit:

Table of predicted SNOs for the next 14.0 days since TLE Epoch: 9/11/2015
Index Date (LANDSAT-8) Time (LANDSAT-8) Lat,Lon (LANDSAT-8) SZA (LANDSAT-8 ) Date (NOAA-19) Time (NOAA-19) Lat,Lon (NOAA-19) SZA (NOAA-19 ) Distance(km) Time Diff (sec)
1 09/12/2015 00:34:04 -73.53, -6.37 110.91 09/12/2015 00:33:59 -73.54, -6.29 110.90 2.86 5
2 09/12/2015 01:23:40 72.98, 160.14 68.53 09/12/2015 01:24:47 72.98, 162.28 68.58 69.81 67
3 09/14/2015 05:18:21 -73.61, -77.27 109.98 09/14/2015 05:17:17 -73.61, -77.23 109.99 1.37 64
4 09/14/2015 06:07:48 73.53, 90.20 69.95 09/14/2015 06:08:15 73.51, 90.26 69.93 3.01 27
5 09/16/2015 10:52:05 73.59, 19.26 70.86 09/16/2015 10:51:34 73.60, 19.26 70.87 1.04 31
6 09/16/2015 11:41:34 -73.53,-173.24 109.19 09/16/2015 11:42:34 -73.51,-173.27 109.21 2.70 60
7 09/18/2015 15:36:11 74.22, -50.41 72.37 09/18/2015 15:35:05 74.28, -53.25 72.38 85.99 66
8 09/18/2015 16:25:51 -73.59, 115.81 108.28 09/18/2015 16:25:52 -73.58, 115.77 108.29 1.43 1
9 09/20/2015 21:10:08 -73.63, 44.84 107.38 09/20/2015 21:09:10 -73.66, 44.80 107.36 3.31 58
10 09/20/2015 21:59:35 73.54,-147.72 72.54 09/20/2015 22:00:09 73.53,-147.65 72.54 2.44 34
11 09/23/2015 02:43:51 73.62, 141.39 73.49 09/23/2015 02:43:28 73.64, 141.32 73.50 2.60 23
12 09/23/2015 03:33:21 -73.51, -51.21 106.62 09/23/2015 03:34:26 -73.52, -51.16 106.60 1.91 65
13 09/25/2015 07:28:03 73.90,
